Location: Newark
(5.8900°S, 42.6378°W)
Time: 11:09:11
(UTC+00:00)

Explorer 7 - Visible Passes

Search period start: 21 October 2019 00:00
Search period end: 31 October 2019 00:00
Orbit: 485 x 680 km, 50.3° (Epoch: 20 October)

Date Brightness Start Highest point End Pass type
(mag) Time Alt. Az. Time Alt. Az. Time Alt. Az.
21 Oct 9.1 21:52:08 10° N 21:52:53 13° NNE 21:52:53 13° NNE visible
22 Oct 7.5 21:56:08 10° NNW 21:59:56 39° NE 21:59:56 39° NE visible
23 Oct 6.9 22:00:46 10° NW 22:05:12 85° NE 22:07:34 29° SE visible
24 Oct 8.1 22:05:54 10° NW 22:10:10 46° SW 22:14:42 10° SSE visible
25 Oct 9.4 22:11:37 10° WNW 22:15:12 23° SW 22:18:57 10° S visible
26 Oct 10.2 22:18:31 10° WSW 22:20:19 12° SW 22:22:09 10° SSW visible
27 Oct 10.0 06:57:22 10° SSE 06:59:50 14° SE 07:02:14 10° E visible
28 Oct 9.1 07:01:00 10° S 07:04:56 28° SE 07:08:39 10° ENE visible
29 Oct 7.6 07:05:25 10° SSW 07:09:56 57° SE 07:14:10 10° NE visible
30 Oct 6.9 07:11:24 17° SW 07:14:53 66° NW 07:19:08 10° NNE visible
